Dewpoint
32 32 32 31 32 31 31 31 31 31 32 31 32 31 31 32 32 31 32 31 30 30 33 31 31 32 32 31 31 30 30 30 30 31 31 31 31 33 38 40 41 43 45 46 48 49 49 50 51 52 53 54 54 55 55 55 55 56 56 56 56 57 57 58 59 60 60 61 61 59 59 59 63 66 68 69 69 69 70 70 70 69 69 70 70
32 32 30 31 31 31 31 30 29 30 31 30 33 32 31 31 31 31 31 30 29 30 30 30 31 31 30 30 29 29 29 29 29 29 30 30 30 31 36 38 40 42 44 45 47 48 49 50 51 51 52 53 53 54 54 54 55 54 55 55 55 56 56 56 56 57 58 59 60 61 61 60 61 65 66 68 69 69 69 70 70 70 69 69 70
31 31 30 30 30 30 30 30 29 30 31 30 33 33 32 30 31 31 30 29 29 30 31 30 29 28 29 29 28 28 28 28 28 29 28 28 29 30 33 36 38 41 43 45 46 47 48 49 49 50 51 52 53 53 54 54 53 54 54 54 55 55 56 56 56 56 56 56 57 58 60 62 62 63 63 66 67 68 69 69 70 70 70 69 69
31 31 30 29 29 29 30 29 28 30 31 31 32 32 31 31 32 32 31 30 29 29 31 29 28 27 28 28 28 28 28 28 27 27 28 28 28 28 29 33 36 39 41 44 45 46 47 48 48 49 50 50 51 52 52 52 53 53 54 54 55 55 55 55 56 56 56 56 57 57 58 59 61 62 64 65 66 67 68 68 69 68 69 70 69
30 31 33 29 29 30 30 30 28 28 31 32 31 30 30 29 31 31 31 29 29 29 32 29 27 27 27 27 28 27 27 27 26 27 27 28 28 28 29 31 32 37 39 41 43 45 46 47 47 48 48 48 49 50 51 51 52 53 53 53 53 54 55 54 54 55 56 56 56 56 57 57 58 59 60 62 64 66 67 67 67 67 67 67 69
30 31 30 29 29 29 29 29 28 29 31 31 29 30 29 29 30 28 32 30 28 29 28 26 27 27 27 28 28 27 26 26 27 27 28 27 27 28 29 30 31 32 34 39 40 42 45 46 47 47 47 48 47 49 50 50 51 52 52 52 52 53 54 54 54 54 54 54 54 54 54 54 55 56 57 59 60 62 64 66 67 67 67 67 66
30 30 29 29 29 29 29 28 29 29 28 31 28 30 28 29 30 27 28 29 29 31 28 27 26 26 26 27 26 27 28 27 28 28 27 27 27 28 29 30 31 32 34 33 37 40 43 45 47 48 48 47 48 48 49 50 50 51 51 50 50 52 53 53 54 54 54 54 53 54 54 55 54 54 55 56 57 58 60 61 64 66 67 67 67
30 29 29 29 28 28 28 29 30 28 29 30 30 28 29 29 30 29 27 28 28 25 26 26 27 26 27 27 27 28 28 28 27 26 26 27 27 28 29 30 31 31 37 34 35 36 42 43 46 47 48 48 48 48 49 49 49 50 50 48 49 51 52 52 51 51 51 50 50 51 52 54 56 56 55 55 56 56 56 58 59 61 64 66 67
30 29 28 28 27 27 28 29 29 27 28 29 29 31 29 29 30 32 28 27 26 25 25 26 26 27 27 27 27 28 27 26 25 25 29 28 27 28 29 30 32 38 34 33 34 35 38 42 43 45 46 47 48 49 48 48 47 47 48 48 48 49 49 49 48 48 48 49 50 51 52 53 55 56 56 56 56 57 57 57 57 58 58 62 66
30 29 28 27 27 28 28 28 28 28 28 27 26 30 29 28 28 30 28 26 25 25 25 26 28 28 27 26 26 25 25 25 25 31 27 26 26 28 28 30 31 32 33 33 34 34 35 38 41 42 42 44 47 46 45 45 45 45 47 48 47 47 46 45 45 46 46 47 49 51 52 52 53 53 53 55 56 56 56 57 57 58 58 58 59
29 29 27 28 27 28 28 28 28 28 27 27 27 30 30 29 27 27 29 27 26 27 27 28 28 27 26 25 25 24 24 25 27 26 24 25 27 32 33 31 31 32 33 34 34 35 36 37 37 37 37 43 45 43 44 45 45 46 48 48 47 46 45 44 44 45 45 46 48 49 50 51 51 51 51 52 54 55 56 57 58 58 59 59 59
29 29 28 28 27 27 27 29 28 27 27 26 26 27 28 27 27 26 26 28 29 28 28 27 25 25 26 25 24 24 23 24 24 24 26 27 27 28 26 28 30 32 33 35 36 36 37 37 38 38 38 38 41 41 42 43 43 44 44 46 47 46 44 43 44 44 45 46 48 49 49 48 48 49 50 51 52 53 54 55 56 57 57 59 60
29 28 27 29 27 27 27 28 28 27 27 26 26 26 27 26 29 29 27 26 27 28 27 27 25 16 23 22 21 21 24 26 24 25 27 23 23 23 24 26 28 30 30 33 34 34 34 35 34 32 32 32 32 36 39 40 41 42 43 44 46 46 44 43 43 44 44 46 47 47 46 45 46 46 48 49 51 52 53 54 55 56 57 58 59
29 28 27 27 26 27 27 27 27 27 27 28 27 31 29 27 27 27 28 27 26 27 27 23 22 20 18 17 21 20 22 25 22 22 20 23 25 25 23 24 25 25 26 26 27 27 28 29 29 28 29 30 31 32 33 32 34 39 42 42 43 44 44 43 44 44 43 44 46 45 45 45 45 46 48 50 51 52 53 53 54 54 55 56 58
29 28 27 26 26 26 26 26 26 28 27 27 28 28 27 26 27 26 25 27 28 29 26 23 19 22 22 22 16 15 21 16 23 19 20 23 25 23 23 25 25 25 26 25 24 25 28 28 29 30 31 32 32 31 30 32 32 37 39 40 41 44 45 44 43 43 43 42 43 43 44 44 45 47 48 48 49 49 50 50 51 52 53 54 56
29 28 27 26 25 25 26 26 26 28 27 26 26 25 26 26 27 28 25 23 23 23 29 25 24 19 8 17 16 20 10 12 18 19 21 23 21 19 23 25 25 25 27 22 24 26 27 28 29 30 31 31 31 30 31 30 32 34 33 36 38 42 43 42 42 43 43 43 43 43 43 44 45 46 46 46 46 47 47 48 50 51 52 53 55
28 28 27 26 26 25 25 25 26 27 26 25 24 24 25 26 26 27 25 23 22 24 26 27 25 27 20 18 13 13 13 13 19 15 22 16 19 22 26 24 23 24 22 22 25 25 26 26 27 28 29 30 28 28 27 27 27 31 30 33 36 38 38 40 41 42 42 43 44 43 43 44 44 44 45 46 46 47 48 48 49 49 51 52 54
28 27 27 26 25 25 25 25 25 26 26 25 24 25 25 25 25 26 25 24 23 24 23 26 27 27 27 21 17 9 16 21 14 6 17 14 21 22 18 21 21 21 21 22 23 23 24 23 25 25 26 26 26 26 26 27 29 28 29 27 33 35 38 38 39 41 42 43 43 44 44 44 44 44 45 45 46 47 48 49 49 49 50 51 53
27 27 27 26 25 25 25 24 24 25 27 24 24 24 24 25 27 24 24 28 24 23 23 23 23 25 27 26 26 26 24 20 16 19 10 17 19 14 14 18 20 20 21 21 20 19 19 21 22 22 23 24 24 25 25 25 28 29 31 33 34 35 37 36 36 38 41 42 42 44 45 45 44 45 45 45 46 46 47 48 48 49 50 50 51
27 26 26 26 25 25 24 24 24 24 26 24 24 24 25 26 26 25 27 26 24 22 22 23 20 21 26 23 24 24 23 23 21 20 19 17 12 13 16 20 18 18 19 18 18 19 18 19 20 21 21 22 24 24 23 23 23 23 24 30 33 35 36 37 38 39 40 42 44 45 44 44 44 45 45 45 45 46 47 47 48 48 50 50 50
26 26 26 26 26 24 24 23 23 24 27 25 24 24 24 25 25 24 24 24 24 24 22 23 23 22 21 21 22 22 21 21 21 21 19 17 14 15 13 17 17 18 19 19 19 20 20 20 21 23 24 23 23 23 23 22 22 22 27 31 33 35 37 37 36 37 37 38 40 41 43 43 44 44 45 45 46 46 47 47 48 48 48 49 49
26 26 26 26 26 25 24 23 23 24 26 24 24 24 23 23 23 22 23 23 25 24 23 24 23 23 22 22 21 21 20 21 20 19 19 19 17 16 17 17 16 16 18 18 20 20 20 20 20 21 21 21 22 22 23 23 23 26 28 33 35 35 36 36 36 36 36 37 37 38 40 41 43 46 47 46 46 46 47 47 48 48 48 48 48
26 25 25 25 25 25 24 23 23 25 26 23 23 23 23 23 23 23 23 23 23 25 27 25 24 24 23 23 22 21 20 20 19 20 19 19 18 18 17 18 17 17 17 18 19 19 19 20 20 21 21 22 22 22 22 22 26 29 33 33 34 35 35 34 34 34 35 35 36 37 38 39 41 44 46 48 50 49 49 48 48 47 47 47 48
25 25 24 25 25 24 24 23 24 24 24 23 23 23 23 23 23 23 23 23 24 24 24 23 23 23 22 22 22 22 22 21 21 21 20 19 19 18 18 18 18 18 20 19 19 19 20 20 21 22 22 22 22 24 25 26 25 31 30 31 33 34 34 34 34 34 35 35 35 36 37 38 38 39 41 43 47 49 50 49 49 51 48 48 49
24 24 24 24 24 24 23 23 23 23 23 23 23 23 23 23 22 22 23 23 23 23 22 22 22 22 22 22 22 22 21 21 21 20 20 20 20 19 18 19 18 18 18 18 19 21 20 20 21 22 22 22 25 25 24 24 23 29 32 31 31 31 32 33 33 34 34 34 34 36 36 37 37 38 40 40 41 46 48 48 48 48 48 50 50
24 24 24 24 24 23 23 22 22 23 23 22 22 22 23 22 22 22 22 22 22 22 22 22 22 22 22 21 21 21 21 21 21 21 21 20 20 19 19 19 18 18 18 18 19 19 20 22 22 22 21 22 22 23 22 22 22 28 30 27 25 28 30 32 33 33 33 34 34 35 36 36 38 38 38 41 41 42 47 48 49 49 49 50 50
23 23 24 23 23 22 23 22 22 22 22 22 23 23 23 22 22 22 22 22 22 22 22 22 22 22 21 22 22 21 21 21 21 21 21 21 21 21 20 18 18 18 15 16 17 18 17 20 21 21 22 24 22 21 22 23 25 27 28 23 22 26 28 30 32 33 33 34 35 36 36 36 37 38 39 39 41 42 45 46 47 48 48 49 48
22 23 23 23 23 22 22 22 22 22 22 22 22 22 22 22 22 22 22 24 22 22 22 22 22 22 22 21 21 21 21 22 22 22 22 22 22 22 21 20 18 16 17 14 14 14 18 19 20 21 21 21 22 22 25 23 21 26 27 23 22 22 26 28 31 32 33 33 34 33 33 34 35 36 37 37 38 39 40 42 43 42 42 43 42
22 23 23 23 23 22 22 21 22 22 22 22 22 22 22 22 22 22 22 23 23 22 22 22 22 22 22 21 21 21 21 22 22 22 22 22 22 22 22 21 20 18 17 16 16 16 17 18 17 20 20 20 21 22 20 21 23 24 21 20 20 20 24 27 30 31 31 32 32 32 32 32 34 34 35 35 36 37 38 38 39 40 41 42 42
22 23 23 23 22 23 21 21 21 21 21 21 21 21 22 22 22 22 22 23 23 23 23 22 22 22 23 22 22 22 22 22 22 22 23 22 22 22 22 21 21 19 18 17 16 18 17 19 18 19 19 18 20 22 22 21 23 21 20 20 19 19 24 26 27 28 29 30 31 32 32 33 33 34 34 35 35 36 37 38 38 38 39 41 43
22 22 22 22 22 22 21 21 21 21 21 21 21 22 22 21 22 22 23 22 22 22 22 22 22 22 21 21 21 21 22 22 23 23 23 23 22 22 22 22 22 21 19 18 17 18 18 18 19 19 18 18 20 18 18 18 20 20 19 18 17 20 21 20 22 25 26 28 29 29 29 31 32 32 33 33 35 35 36 36 36 37 38 39 41
21 22 22 22 21 21 21 21 20 21 21 21 21 21 22 21 22 22 22 22 22 21 22 22 23 22 21 21 21 21 21 20 19 19 18 18 18 18 18 19 19 19 19 18 17 17 18 18 17 17 18 17 16 14 14 16 18 19 14 14 13 18 13 12 18 21 23 25 27 29 30 31 31 32 32 33 33 34 35 35 36 37 37 38 39
20 21 21 21 21 21 20 21 20 20 20 21 21 21 21 21 22 21 21 21 21 21 21 21 21 21 21 20 19 19 18 17 17 17 16 16 15 16 16 16 16 16 16 16 15 15 15 17 16 16 15 14 13 12 12 12 11 11 15 12 12 11 11 11 12 18 21 24 26 28 29 29 30 31 31 32 32 33 34 35 35 35 37 38 39
20 20 20 20 20 20 20 20 20 20 20 20 21 21 21 21 21 21 21 21 20 20 20 19 19 18 18 17 16 16 15 15 15 14 14 14 13 13 13 14 14 14 14 14 14 14 13 13 13 13 12 12 10 10 10 10 10 12 11 11 11 12 12 12 11 13 19 23 26 27 29 29 30 31 31 31 31 33 34 35 35 36 37 38 38
20 20 20 20 20 19 19 19 19 19 20 20 21 21 21 20 20 20 20 20 19 18 18 17 17 16 16 16 15 14 14 13 13 13 13 12 13 12 12 12 12 12 13 13 13 12 11 10 11 10 9 9 9 9 10 11 12 12 10 10 10 12 13 12 12 13 19 24 26 27 28 28 29 30 30 30 31 32 33 34 35 35 36 37 37
19 19 19 19 19 19 19 19 19 19 20 20 20 20 20 20 20 20 19 19 18 18 17 17 16 15 15 15 14 14 14 13 12 12 12 11 11 11 11 10 10 10 10 10 10 9 8 8 8 7 8 8 9 10 11 11 10 10 10 10 10 11 10 12 11 11 15 22 24 26 26 27 27 28 29 29 30 31 32 33 34 35 36 36 37
19 19 19 19 19 18 18 19 19 19 20 20 20 20 20 19 19 19 18 18 17 17 17 16 18 15 15 14 14 13 13 12 12 11 12 10 10 10 9 10 10 10 9 9 9 9 8 7 7 8 8 8 9 9 10 9 10 9 9 9 10 10 10 10 11 13 18 21 22 23 23 24 26 27 28 29 29 30 31 32 33 34 34 35 35
19 19 19 19 19 18 18 18 19 19 19 19 19 19 19 19 19 18 17 17 16 16 15 15 16 15 15 14 14 13 12 12 12 12 11 10 11 10 9 9 9 9 8 8 8 8 8 8 8 7 8 9 9 9 9 9 9 9 8 9 10 10 10 9 10 13 14 14 14 14 18 18 21 23 25 27 29 30 31 32 32 33 33 32 33
18 18 18 18 19 18 18 18 18 19 19 19 19 19 18 18 18 17 16 16 15 15 14 14 14 14 14 14 14 13 13 12 12 11 11 10 10 10 11 10 10 10 9 9 9 9 9 9 9 9 9 10 10 9 9 10 9 10 9 9 9 10 11 10 10 11 12 13 16 21 20 19 22 21 23 26 28 29 30 31 32 32 32 33 34
18 18 18 18 18 18 18 18 18 19 19 18 18 18 17 17 17 16 16 15 15 14 14 14 14 14 13 13 13 13 13 12 12 11 11 11 11 10 11 11 10 10 11 11 10 10 10 9 9 9 9 9 9 10 11 10 10 10 11 10 10 10 11 12 11 11 12 12 12 12 17 19 19 20 23 24 26 28 29 29 31 31 29 28 30
18 18 18 18 18 17 17 18 18 18 18 18 18 17 16 15 16 15 15 14 14 13 13 13 12 12 12 12 12 12 13 15 16 16 15 15 12 12 12 12 12 12 12 12 12 11 11 11 11 10 10 10 10 11 11 11 10 10 11 12 12 12 12 12 12 12 13 12 12 12 13 14 15 16 17 18 20 25 28 28 27 26 26 27 28
18 18 17 17 17 17 17 17 17 17 17 16 19 23 21 16 15 14 14 14 13 12 12 11 11 11 11 11 12 16 17 17 18 19 19 20 20 16 13 14 14 13 13 12 12 12 12 11 11 11 11 11 11 11 11 11 12 13 13 13 13 14 13 13 13 12 14 12 12 12 15 18 18 19 22 21 21 22 20 20 19 22 24 27 29
18 17 17 17 16 16 16 16 16 16 15 16 24 26 25 23 16 14 14 13 12 11 11 10 10 11 11 11 12 15 17 19 18 20 21 21 21 21 22 21 19 15 14 13 13 13 12 12 12 13 12 12 12 13 13 13 14 14 15 14 14 12 12 12 11 12 12 13 16 16 15 15 15 15 15 16 17 18 18 18 24 25 25 27 30
17 17 16 16 16 15 15 15 15 14 14 21 26 26 26 25 20 14 14 13 13 10 10 10 12 13 13 13 14 14 15 15 15 15 17 18 19 19 19 19 20 21 21 19 18 17 17 16 16 17 16 15 14 14 14 14 13 13 11 12 10 12 11 12 10 10 10 11 11 12 12 13 15 16 16 15 16 16 16 20 24 24 27 28 30
16 16 17 15 15 15 14 14 14 14 13 22 27 27 26 25 23 17 13 14 13 12 11 12 13 14 14 15 15 15 14 18 17 14 13 14 17 18 18 18 19 20 21 22 22 20 19 18 17 17 16 15 14 13 14 13 14 11 13 11 11 10 11 10 10 9 9 11 10 10 11 11 11 11 11 12 13 13 14 21 23 26 28 29 30
17 16 16 15 15 15 13 13 13 13 12 22 26 26 26 26 24 18 13 13 14 15 13 14 14 15 15 15 15 15 13 13 13 13 12 12 11 11 12 12 13 15 20 21 21 21 20 17 14 14 13 13 13 13 14 15 13 14 14 15 14 14 14 13 12 12 12 14 11 11 12 12 12 13 12 12 14 14 16 21 26 27 28 29 30
17 16 15 15 15 15 14 13 13 12 11 22 25 27 27 27 25 19 14 15 16 16 15 15 16 16 16 15 13 12 12 12 12 13 12 12 14 15 15 16 16 15 14 15 15 16 16 14 13 13 14 14 15 16 16 17 17 17 17 17 16 16 17 17 17 16 15 15 13 13 13 13 14 14 14 14 17 16 16 22 26 27 28 29 29
16 16 15 15 14 14 13 13 12 11 10 23 26 26 26 26 28 19 18 18 18 18 18 17 16 15 13 13 12 12 12 12 15 18 18 16 18 18 18 19 19 19 19 19 21 22 21 20 20 19 18 18 22 19 20 20 20 20 21 21 21 20 19 17 16 17 17 17 16 14 15 15 15 15 15 17 18 18 18 18 24 26 28 28 29
15 14 14 14 14 13 12 12 11 11 11 22 26 25 25 25 25 20 19 19 19 18 17 15 14 13 13 13 13 13 13 13 16 19 20 20 18 18 18 18 18 17 17 18 22 22 22 22 22 22 23 23 24 24 24 25 21 22 19 16 15 17 16 15 15 16 16 18 20 17 18 17 19 20 20 21 20 20 19 19 19 23 25 28 29
14 13 13 12 12 12 12 11 11 10 11 21 25 24 24 26 24 20 19 18 17 16 16 15 14 14 13 17 16 12 12 12 18 20 20 18 18 18 17 17 17 18 18 18 16 16 19 19 19 20 21 22 23 23 23 22 21 19 12 10 12 13 12 12 11 13 15 17 18 19 17 14 16 16 16 18 18 19 19 19 21 23 26 27 28
13 12 11 11 10 11 11 10 14 11 11 19 25 24 23 25 23 19 18 17 16 16 16 15 14 14 13 16 18 18 17 17 19 20 20 19 18 18 18 19 17 16 17 16 14 13 14 15 15 15 13 13 10 7 8 17 18 17 10 11 12 12 11 11 12 13 12 13 16 17 15 15 16 17 16 17 16 18 20 19 19 18 19 22 25